Previsão horária em Barsuchiy

Hoje, 21 Outubro, Quarta-feira

Tempo Temperatura Precipitação Vento Pressão Humidade
00:00 +3°C° 0 mm 4 m/s 752 mmHg 63%
01:00 +1°C° 0 mm 4 m/s 752 mmHg 67%
02:00 +1°C° 0 mm 4 m/s 753 mmHg 72%
03:00 0°C° 0 mm 4 m/s 753 mmHg 80%
04:00 0°C° 0 mm 4 m/s 753 mmHg 83%
05:00 0°C° 0 mm 4 m/s 753 mmHg 87%
06:00 -1°C° 0 mm 4 m/s 753 mmHg 90%
07:00 0°C° 0 mm 5 m/s 754 mmHg 82%
08:00 +1°C° 0 mm 6 m/s 754 mmHg 73%
09:00 +2°C° 0 mm 7 m/s 755 mmHg 65%
10:00 +3°C° 0 mm 7 m/s 755 mmHg 60%
11:00 +3°C° 0 mm 7 m/s 755 mmHg 56%
12:00 +4°C° 0 mm 7 m/s 755 mmHg 51%
13:00 +4°C° 0 mm 6 m/s 755 mmHg 49%
14:00 +4°C° 0 mm 6 m/s 755 mmHg 47%
15:00 +4°C° 0 mm 6 m/s 755 mmHg 45%
16:00 +5°C° 0 mm 5 m/s 755 mmHg 48%
17:00 +4°C° 0 mm 4 m/s 755 mmHg 51%
18:00 +3°C° 0 mm 3 m/s 755 mmHg 53%
19:00 +3°C° 0 mm 3 m/s 755 mmHg 54%
20:00 +3°C° 0 mm 3 m/s 755 mmHg 55%
21:00 +3°C° 0 mm 3 m/s 756 mmHg 57%
22:00 +3°C° 0 mm 3 m/s 756 mmHg 58%
23:00 +2°C° 0 mm 3 m/s 756 mmHg 60%

Amanhã, 22 Outubro, Quinta-feira

Tempo Temperatura Precipitação Vento Pressão Humidade
00:00 +2°C° 0 mm 3 m/s 756 mmHg 62%
01:00 +2°C° 0 mm 3 m/s 756 mmHg 72%
02:00 +1°C° 0 mm 3 m/s 756 mmHg 82%
03:00 +1°C° 0 mm 3 m/s 755 mmHg 92%
04:00 +1°C° 0 mm 3 m/s 755 mmHg 90%
05:00 +2°C° 0 mm 2 m/s 755 mmHg 89%
06:00 +2°C° 0 mm 2 m/s 755 mmHg 88%
07:00 +3°C° 0 mm 2 m/s 756 mmHg 86%
08:00 +3°C° 0 mm 2 m/s 756 mmHg 83%
09:00 +5°C° 0 mm 1 m/s 756 mmHg 81%
10:00 +4°C° 0 mm 2 m/s 756 mmHg 78%
11:00 +5°C° 0 mm 2 m/s 756 mmHg 75%
12:00 +6°C° 0 mm 2 m/s 756 mmHg 73%
13:00 +6°C° 0 mm 2 m/s 755 mmHg 70%
14:00 +5°C° 0 mm 3 m/s 755 mmHg 68%
15:00 +7°C° 0 mm 3 m/s 755 mmHg 66%
16:00 +5°C° 0 mm 3 m/s 755 mmHg 72%
17:00 +5°C° 0 mm 2 m/s 755 mmHg 79%
18:00 +4°C° 0 mm 2 m/s 754 mmHg 85%
19:00 +4°C° 0 mm 2 m/s 754 mmHg 82%
20:00 +5°C° 0 mm 2 m/s 754 mmHg 80%
21:00 +5°C° 0 mm 2 m/s 753 mmHg 78%
22:00 +5°C° 0 mm 3 m/s 753 mmHg 76%
23:00 +5°C° 0 mm 3 m/s 753 mmHg 73%

Depois de amanhã, 23 Outubro, Sexta-feira

Tempo Temperatura Precipitação Vento Pressão Humidade
00:00 +5°C° 0 mm 3 m/s 752 mmHg 71%
01:00 +7°C° 0.2 mm 3 m/s 752 mmHg 71%
02:00 +7°C° 0.2 mm 3 m/s 751 mmHg 72%
03:00 +7°C° 0.2 mm 3 m/s 751 mmHg 72%
04:00 +7°C° 0 mm 3 m/s 750 mmHg 73%
05:00 +7°C° 0 mm 3 m/s 750 mmHg 75%
06:00 +8°C° 0 mm 3 m/s 749 mmHg 77%
07:00 +7°C° 0 mm 4 m/s 749 mmHg 75%
08:00 +8°C° 0 mm 5 m/s 749 mmHg 73%
09:00 +9°C° 0 mm 6 m/s 748 mmHg 72%
10:00 +10°C° 0 mm 6 m/s 748 mmHg 67%
11:00 +11°C° 0 mm 6 m/s 748 mmHg 63%
12:00 +14°C° 0 mm 6 m/s 748 mmHg 59%
13:00 +14°C° 0 mm 6 m/s 748 mmHg 57%
14:00 +15°C° 0 mm 7 m/s 748 mmHg 56%
15:00 +16°C° 0 mm 7 m/s 748 mmHg 54%
16:00 +14°C° 0 mm 6 m/s 748 mmHg 60%
17:00 +13°C° 0 mm 5 m/s 748 mmHg 67%
18:00 +11°C° 0 mm 3 m/s 749 mmHg 73%
19:00 +11°C° 0 mm 3 m/s 749 mmHg 77%
20:00 +10°C° 0 mm 3 m/s 749 mmHg 80%
21:00 +10°C° 0 mm 3 m/s 749 mmHg 84%
22:00 +9°C° 0 mm 3 m/s 749 mmHg 85%
23:00 +9°C° 0 mm 3 m/s 748 mmHg 86%

24 Outubro, Sábado

Tempo Temperatura Precipitação Vento Pressão Humidade
00:00 +9°C° 0 mm 3 m/s 748 mmHg 88%
01:00 +9°C° 0 mm 3 m/s 748 mmHg 85%
02:00 +9°C° 0 mm 3 m/s 748 mmHg 83%
03:00 +10°C° 0 mm 4 m/s 747 mmHg 81%
04:00 +10°C° 0 mm 4 m/s 747 mmHg 75%
05:00 +10°C° 0 mm 4 m/s 747 mmHg 68%
06:00 +11°C° 0 mm 4 m/s 747 mmHg 62%
07:00 +10°C° 0 mm 5 m/s 746 mmHg 60%
08:00 +12°C° 0 mm 5 m/s 746 mmHg 59%
09:00 +13°C° 0 mm 6 m/s 746 mmHg 58%
10:00 +14°C° 0 mm 6 m/s 746 mmHg 55%
11:00 +15°C° 0 mm 6 m/s 746 mmHg 52%
12:00 +16°C° 0 mm 5 m/s 746 mmHg 49%
13:00 +16°C° 0 mm 5 m/s 746 mmHg 49%
14:00 +17°C° 0 mm 5 m/s 746 mmHg 49%
15:00 +17°C° 0 mm 5 m/s 747 mmHg 48%
16:00 +15°C° 0 mm 4 m/s 747 mmHg 54%
17:00 +14°C° 0 mm 3 m/s 747 mmHg 59%
18:00 +13°C° 0 mm 2 m/s 747 mmHg 64%
19:00 +13°C° 0 mm 1 m/s 747 mmHg 65%
20:00 +13°C° 0 mm 1 m/s 747 mmHg 67%
21:00 +12°C° 0 mm 1 m/s 747 mmHg 68%
22:00 +12°C° 0 mm 1 m/s 747 mmHg 68%
23:00 +13°C° 0 mm 1 m/s 747 mmHg 67%

25 Outubro, Domingo

Tempo Temperatura Precipitação Vento Pressão Humidade
00:00 +13°C° 0 mm 1 m/s 747 mmHg 67%
01:00 +13°C° 0 mm 1 m/s 747 mmHg 69%
02:00 +12°C° 0 mm 1 m/s 747 mmHg 71%
03:00 +12°C° 0 mm 1 m/s 746 mmHg 74%
04:00 +12°C° 0 mm 1 m/s 746 mmHg 76%
05:00 +12°C° 0 mm 2 m/s 745 mmHg 78%
06:00 +12°C° 0 mm 2 m/s 745 mmHg 80%
07:00 +11°C° 0 mm 3 m/s 745 mmHg 80%
08:00 +12°C° 0 mm 3 m/s 744 mmHg 79%
09:00 +13°C° 0 mm 4 m/s 744 mmHg 78%
10:00 +13°C° 0 mm 5 m/s 744 mmHg 77%
11:00 +14°C° 0 mm 6 m/s 743 mmHg 76%
12:00 +14°C° 0 mm 7 m/s 743 mmHg 75%
13:00 +14°C° 0 mm 7 m/s 743 mmHg 72%
14:00 +14°C° 0 mm 7 m/s 743 mmHg 68%
15:00 +14°C° 0 mm 7 m/s 743 mmHg 65%
16:00 +12°C° 0 mm 7 m/s 743 mmHg 64%
17:00 +11°C° 0 mm 6 m/s 743 mmHg 63%
18:00 +10°C° 0 mm 6 m/s 744 mmHg 62%
19:00 +10°C° 0 mm 6 m/s 744 mmHg 63%
20:00 +9°C° 0 mm 6 m/s 744 mmHg 64%
21:00 +9°C° 0 mm 6 m/s 744 mmHg 65%
22:00 +9°C° 0 mm 5 m/s 743 mmHg 68%
23:00 +8°C° 0 mm 5 m/s 743 mmHg 71%

26 Outubro, Segunda-feira

Tempo Temperatura Precipitação Vento Pressão Humidade
00:00 +8°C° 0 mm 4 m/s 743 mmHg 75%
01:00 +8°C° 0 mm 4 m/s 743 mmHg 78%
02:00 +8°C° 0 mm 4 m/s 744 mmHg 82%
03:00 +8°C° 0 mm 5 m/s 744 mmHg 86%
04:00 +8°C° 0.1 mm 6 m/s 744 mmHg 83%
05:00 +9°C° 0.1 mm 7 m/s 745 mmHg 80%
06:00 +9°C° 0.1 mm 8 m/s 745 mmHg 77%
07:00 +9°C° 0 mm 8 m/s 746 mmHg 76%
08:00 +9°C° 0 mm 8 m/s 747 mmHg 75%
09:00 +9°C° 0 mm 8 m/s 748 mmHg 74%
10:00 +10°C° 0 mm 8 m/s 749 mmHg 71%
11:00 +10°C° 0 mm 8 m/s 750 mmHg 68%
12:00 +10°C° 0 mm 8 m/s 750 mmHg 65%
13:00 +10°C° 0 mm 8 m/s 751 mmHg 66%
14:00 +10°C° 0 mm 7 m/s 751 mmHg 67%
15:00 +10°C° 0 mm 7 m/s 752 mmHg 67%
16:00 +9°C° 0 mm 7 m/s 753 mmHg 68%
17:00 +9°C° 0 mm 6 m/s 753 mmHg 69%
18:00 +9°C° 0 mm 6 m/s 754 mmHg 70%
19:00 +8°C° 0 mm 5 m/s 754 mmHg 75%
20:00 +7°C° 0 mm 5 m/s 755 mmHg 80%
21:00 +6°C° 0 mm 4 m/s 755 mmHg 84%
22:00 +5°C° 0 mm 4 m/s 755 mmHg 87%
23:00 +4°C° 0 mm 4 m/s 756 mmHg 89%

27 Outubro, Terça-feira

Tempo Temperatura Precipitação Vento Pressão Humidade
00:00 +4°C° 0 mm 3 m/s 756 mmHg 91%
01:00 +3°C° 0 mm 3 m/s 756 mmHg 90%
02:00 +3°C° 0 mm 3 m/s 756 mmHg 89%
03:00 +2°C° 0 mm 3 m/s 756 mmHg 88%
04:00 +2°C° 0 mm 3 m/s 757 mmHg 86%
05:00 +2°C° 0 mm 3 m/s 757 mmHg 85%
06:00 +2°C° 0 mm 3 m/s 758 mmHg 83%
07:00 +3°C° 0 mm 3 m/s 758 mmHg 76%
08:00 +4°C° 0 mm 4 m/s 758 mmHg 68%
09:00 +5°C° 0 mm 4 m/s 758 mmHg 60%
10:00 +7°C° 0 mm 4 m/s 758 mmHg 52%
11:00 +10°C° 0 mm 4 m/s 758 mmHg 44%
12:00 +11°C° 0 mm 4 m/s 759 mmHg 36%
13:00 +12°C° 0 mm 4 m/s 759 mmHg 36%
14:00 +12°C° 0 mm 4 m/s 759 mmHg 36%
15:00 +12°C° 0 mm 4 m/s 759 mmHg 36%
16:00 +11°C° 0 mm 4 m/s 759 mmHg 43%
17:00 +9°C° 0 mm 3 m/s 759 mmHg 50%
18:00 +7°C° 0 mm 3 m/s 759 mmHg 57%
19:00 +7°C° 0 mm 3 m/s 759 mmHg 62%
20:00 +5°C° 0 mm 3 m/s 760 mmHg 68%
21:00 +5°C° 0 mm 3 m/s 760 mmHg 74%
22:00 +5°C° 0 mm 3 m/s 760 mmHg 77%
23:00 +4°C° 0 mm 3 m/s 760 mmHg 81%
Mostrar mais